Weather History for Alicante, Spain

Change the Weather History Date:

Monday, January 7, 2013

  Actual Average Record
Temperature  
Mean Temperature 53 °F -  
Max Temperature 68 °F 59 °F 68 °F (1999)
Min Temperature 38 °F 42 °F 32 °F (2000)
Degree Days  
Heating Degree Days 12    
Growing Degree Days 3 (Base 50)    
Moisture  
Dew Point 39 °F    
Average Humidity 64    
Maximum Humidity 87    
Minimum Humidity 24    
Precipitation  
Precipitation 0.00 in - - ()
Sea Level Pressure  
Sea Level Pressure 30.25 in    
Wind  
Wind Speed 3 mph ()    
Max Wind Speed 14 mph    
Max Gust Speed -    
Visibility 13.3 miles    
Events      
Averages and records for this station are not official NWS values.
T = Trace of Precipitation, MM = Missing Value Source: Averaged Metar Reports

Daily Weather History Graph

Daily Weather History Graph

Search for Another Location

Airport:

Trip Planner

Search our weather history database for the weather conditions in past years. The results will help you decide how hot, cold, wet, or windy it might be!

Date:

Astronomy

Jan. 07, 2013 Rise Set
Actual Time 8:19 AM CET 5:58 PM CET
Civil Twilight 7:50 AM CET 6:27 PM CET
Nautical Twilight 7:17 AM CET 7:00 PM CET
Astronomical Twilight 6:45 AM CET 7:32 PM CET
Moon 3:27 AM CET (1/7) 1:56 PM CET (1/7)
Length of Visible Light 10h 37m
Length of Day
9h 38m
Waning Crescent, 25% of the Moon is Illuminated
Jan 7
Waning Crescent
Jan 11
New
Jan 19
First Quarter
Jan 27
Full
Feb 3
Last Quarter

Hourly Weather History & Observations

Time (CET) Temp. Windchill Dew Point Humidity Pressure Visibility Wind Dir Wind Speed Gust Speed Precip Events Conditions
12:00 AM 44.6 °F - 39.2 °F 81% 30.30 in - Variable 2.3 mph - N/A   Clear
12:30 AM 46.4 °F 45.2 °F 37.4 °F 71% 30.30 in - West 3.5 mph - N/A   Clear
1:00 AM 44 °F - 34 °F 57% 30.30 in 12 mi West 2.3 mph - -  
1:00 AM 44.6 °F - 35.6 °F 71% 30.27 in - Variable 2.3 mph - N/A   Clear
1:30 AM 44.6 °F 43.1 °F 35.6 °F 71% 30.27 in - WNW 3.5 mph - N/A   Clear
2:00 AM 46.4 °F 45.2 °F 33.8 °F 62% 30.27 in - West 3.5 mph - N/A   Clear
2:30 AM 44.6 °F - 33.8 °F 66% 30.27 in - Variable 1.2 mph - N/A   Clear
3:00 AM 42.8 °F 41.1 °F 33.8 °F 70% 30.27 in - SSW 3.5 mph - N/A   Clear
3:30 AM 41.0 °F - 33.8 °F 76% 30.27 in - Variable 1.2 mph - N/A   Clear
4:00 AM 41.0 °F - 33.8 °F 76% 30.27 in - Calm Calm - N/A   Clear
5:00 AM 39.2 °F - 33.8 °F 81% 30.24 in - Variable 1.2 mph - N/A   Clear
5:30 AM 44.6 °F - 35.6 °F 71% 30.24 in - Variable 2.3 mph - N/A   Clear
6:30 AM 39.2 °F 37.0 °F 33.8 °F 81% 30.24 in - West 3.5 mph - N/A   Clear
7:00 AM 39 °F - 31 °F 64% 30.27 in 12 mi SW 2.3 mph - -  
7:30 AM 39.2 °F - 33.8 °F 81% 30.27 in - Variable 1.2 mph - N/A   Clear
8:00 AM 39.2 °F - 33.8 °F 81% 30.27 in - Calm Calm - N/A   Clear
8:30 AM 46.4 °F 44.3 °F 35.6 °F 66% 30.27 in - West 4.6 mph - N/A   Clear
9:00 AM 42.8 °F 41.1 °F 35.6 °F 76% 30.27 in - WSW 3.5 mph - N/A   Clear
9:30 AM 46.4 °F 44.3 °F 37.4 °F 71% 30.27 in - SSW 4.6 mph - N/A   Clear
10:00 AM 53.6 °F - 41.0 °F 62% 30.27 in - Variable 1.2 mph - N/A   Clear
10:30 AM 59.0 °F - 37.4 °F 45% 30.27 in - West 6.9 mph - N/A   Clear
11:00 AM 60.8 °F - 37.4 °F 42% 30.27 in - WNW 8.1 mph - N/A   Clear
11:30 AM 62.6 °F - 35.6 °F 37% 30.27 in - West 9.2 mph - N/A   Clear
12:00 PM 64.4 °F - 33.8 °F 32% 30.27 in - West 13.8 mph - N/A   Clear
12:30 PM 66.2 °F - 33.8 °F 30% 30.24 in - West 12.7 mph - N/A   Clear
1:00 PM 64 °F - 36 °F 24% 30.25 in 16 mi SSW 10.4 mph - -   Clear
1:30 PM 66.2 °F - 39.2 °F 37% 30.21 in - SSW 9.2 mph - N/A   Clear
2:00 PM 66.2 °F - 37.4 °F 35% 30.21 in - SSW 9.2 mph - N/A   Clear
2:30 PM 68.0 °F - 39.2 °F 35% 30.21 in - SSW 6.9 mph - N/A   Clear
3:00 PM 68.0 °F - 37.4 °F 33% 30.21 in - SSW 3.5 mph - N/A   Clear
3:30 PM 64.4 °F - 46.4 °F 52% 30.21 in - ENE 8.1 mph - N/A   Clear
4:00 PM 62.6 °F - 48.2 °F 59% 30.21 in - NE 5.8 mph - N/A   Clear
4:30 PM 64.4 °F - 44.6 °F 49% 30.21 in - Variable 2.3 mph - N/A   Clear
5:00 PM 64.4 °F - 48.2 °F 56% 30.21 in - Variable 2.3 mph - N/A   Clear
5:30 PM 62.6 °F - 48.2 °F 59% 30.21 in - Calm Calm - N/A   Clear
6:00 PM 59.0 °F - 48.2 °F 67% 30.21 in - Variable 1.2 mph - N/A   Clear
7:00 PM 53.6 °F - 48.2 °F 82% 30.24 in - Variable 2.3 mph - N/A   Clear
7:30 PM 50.0 °F - 44.6 °F 82% 30.24 in - Variable 2.3 mph - N/A   Clear
8:00 PM 53.6 °F - 48.2 °F 82% 30.24 in - Calm Calm - N/A   Clear
8:30 PM 50.0 °F - 44.6 °F 82% 30.24 in - Calm Calm - N/A   Clear
9:00 PM 48.2 °F - 44.6 °F 87% 30.24 in - Calm Calm - N/A   Clear
9:30 PM 46.4 °F - 42.8 °F 87% 30.24 in - Variable 2.3 mph - N/A   Clear
10:00 PM 46.4 °F - 42.8 °F 87% 30.24 in - Variable 1.2 mph - N/A   Clear
10:30 PM 44.6 °F - 39.2 °F 81% 30.27 in - Variable 1.2 mph - N/A   Clear
11:00 PM 42.8 °F 41.1 °F 37.4 °F 81% 30.27 in - West 3.5 mph - N/A   Clear
11:30 PM 44.6 °F - 37.4 °F 76% 30.27 in - Variable 2.3 mph - N/A   Clear